Weather History for Farmington, MO

Change the Weather History Date:

Saturday, May 4, 2013

  Actual Average Record
Temperature  
Mean Temperature 40 °F -  
Max Temperature 48 °F 70 °F 89 °F (2014)
Min Temperature 33 °F 51 °F 33 °F (2005)
Degree Days  
Heating Degree Days 24    
Moisture  
Dew Point 34 °F    
Average Humidity 79    
Maximum Humidity 93    
Minimum Humidity 57    
Precipitation  
Precipitation 0.01 in - - ()
Sea Level Pressure  
Sea Level Pressure 29.93 in    
Wind  
Wind Speed 5 mph (SSE)    
Max Wind Speed 10 mph    
Max Gust Speed -    
Visibility 10 miles    
Events      
Averages and records for this station are not official NWS values.
T = Trace of Precipitation, MM = Missing Value Source: NWS Daily Summary

Daily Weather History Graph

Daily Weather History Graph

Search for Another Location

Airport:

Trip Planner

Search our weather history database for the weather conditions in past years. The results will help you decide how hot, cold, wet, or windy it might be!

Date:

Astronomy

May. 04, 2013 Rise Set
Actual Time 6:02 AM CDT 7:55 PM CDT
Civil Twilight 5:33 AM CDT 8:23 PM CDT
Nautical Twilight 4:59 AM CDT 8:58 PM CDT
Astronomical Twilight 4:22 AM CDT 9:35 PM CDT
Moon 2:55 AM CDT (5/4) 2:58 PM CDT (5/4)
Length of Visible Light 14h 49m
Length of Day
13h 52m
Waning Crescent, 27% of the Moon is Illuminated
May 4
Waning Crescent
May 9
New
May 17
First Quarter
May 24
Full
May 31
Last Quarter

Hourly Weather History & Observations

Time (CDT) Temp. Windchill Dew Point Humidity Pressure Visibility Wind Dir Wind Speed Gust Speed Precip Events Conditions
12:15 AM 37.4 °F 33.8 °F 35.6 °F 93% 29.88 in 10.0 mi SW 4.6 mph - N/A   Overcast
12:35 AM 37.4 °F 34.9 °F 35.6 °F 93% 29.88 in 10.0 mi SW 3.5 mph - N/A   Overcast
12:55 AM 37.4 °F 33.8 °F 35.6 °F 93% 29.87 in 10.0 mi SSW 4.6 mph - N/A   Overcast
1:15 AM 39.2 °F 35.9 °F 35.6 °F 87% 29.87 in 10.0 mi SW 4.6 mph - N/A   Overcast
1:35 AM 37.4 °F 33.8 °F 35.6 °F 93% 29.87 in 10.0 mi SW 4.6 mph - N/A   Overcast
1:55 AM 37.4 °F 33.8 °F 35.6 °F 93% 29.87 in 10.0 mi South 4.6 mph - N/A   Overcast
2:15 AM 37.4 °F 34.9 °F 35.6 °F 93% 29.87 in 10.0 mi South 3.5 mph - N/A   Overcast
2:35 AM 37.4 °F 34.9 °F 35.6 °F 93% 29.87 in 10.0 mi SSE 3.5 mph - N/A   Overcast
2:55 AM 37.4 °F 33.8 °F 35.6 °F 93% 29.87 in 8.0 mi SSE 4.6 mph - N/A   Overcast
3:15 AM 37.4 °F 33.8 °F 35.6 °F 93% 29.86 in 4.0 mi SSE 4.6 mph - N/A   Overcast
3:35 AM 37.4 °F 34.9 °F 35.6 °F 93% 29.86 in 9.0 mi SSE 3.5 mph - N/A   Overcast
3:55 AM 37.4 °F 34.9 °F 35.6 °F 93% 29.86 in 10.0 mi South 3.5 mph - N/A   Overcast
4:15 AM 37.4 °F 33.8 °F 35.6 °F 93% 29.86 in 7.0 mi SSW 4.6 mph - N/A   Overcast
4:35 AM 37.4 °F 32.1 °F 35.6 °F 93% 29.86 in 5.0 mi SSW 6.9 mph - N/A   Overcast
4:55 AM 37.4 °F 32.8 °F 35.6 °F 93% 29.87 in 10.0 mi South 5.8 mph - N/A   Mostly Cloudy
5:15 AM 37.4 °F 32.8 °F 35.6 °F 93% 29.87 in 6.0 mi SSW 5.8 mph - N/A   Overcast
5:35 AM 37.4 °F 33.8 °F 35.6 °F 93% 29.87 in 4.0 mi South 4.6 mph - 0.01 in   Overcast
5:55 AM 37.4 °F 30.8 °F 35.6 °F 93% 29.87 in 10.0 mi South 9.2 mph - 0.01 in   Overcast
6:15 AM 35.6 °F 29.9 °F 33.8 °F 93% 29.88 in 10.0 mi South 6.9 mph - N/A   Mostly Cloudy
6:35 AM 35.6 °F 30.7 °F 33.8 °F 93% 29.90 in 10.0 mi SSE 5.8 mph - N/A   Partly Cloudy
6:55 AM 35.6 °F 31.7 °F 33.8 °F 93% 29.90 in 10.0 mi South 4.6 mph - N/A   Scattered Clouds
7:15 AM 37.4 °F 33.8 °F 33.8 °F 87% 29.91 in 10.0 mi South 4.6 mph - N/A   Overcast
7:35 AM 37.4 °F 34.9 °F 35.6 °F 93% 29.90 in 10.0 mi SSE 3.5 mph - N/A   Overcast
7:55 AM 37.4 °F 32.1 °F 35.6 °F 93% 29.91 in 10.0 mi SSW 6.9 mph - N/A   Overcast
8:15 AM 37.4 °F 32.1 °F 35.6 °F 93% 29.92 in 10.0 mi South 6.9 mph - N/A   Overcast
8:35 AM 37.4 °F 32.8 °F 33.8 °F 87% 29.92 in 10.0 mi South 5.8 mph - N/A   Overcast
8:55 AM 37.4 °F 32.8 °F 33.8 °F 87% 29.92 in 10.0 mi South 5.8 mph - N/A   Mostly Cloudy
9:15 AM 37.4 °F 33.8 °F 33.8 °F 87% 29.92 in 10.0 mi South 4.6 mph - N/A   Mostly Cloudy
9:35 AM 39.2 °F 34.2 °F 35.6 °F 87% 29.93 in 10.0 mi South 6.9 mph - N/A   Overcast
9:55 AM 39.2 °F 35.0 °F 35.6 °F 87% 29.93 in 10.0 mi SSE 5.8 mph - N/A   Overcast
10:15 AM 41.0 °F 37.1 °F 35.6 °F 81% 29.93 in 10.0 mi SSE 5.8 mph - N/A   Overcast
10:35 AM 42.8 °F 40.1 °F 35.6 °F 76% 29.93 in 10.0 mi SE 4.6 mph - N/A   Overcast
10:55 AM 42.8 °F 38.6 °F 33.8 °F 70% 29.93 in 10.0 mi East 6.9 mph - N/A   Overcast
11:15 AM 42.8 °F 37.0 °F 33.8 °F 70% 29.93 in 10.0 mi ESE 10.4 mph - N/A   Overcast
11:35 AM 42.8 °F - 35.6 °F 76% 29.93 in 10.0 mi Calm Calm - N/A   Overcast
11:55 AM 44.6 °F 41.4 °F 33.8 °F 66% 29.93 in 10.0 mi South 5.8 mph - N/A   Overcast
12:15 PM 44.6 °F 39.2 °F 33.8 °F 66% 29.93 in 10.0 mi South 10.4 mph - N/A   Overcast
12:35 PM 44.6 °F 40.2 °F 35.6 °F 71% 29.93 in 10.0 mi SSE 8.1 mph - N/A   Overcast
12:55 PM 44.6 °F - 33.8 °F 66% 29.93 in 10.0 mi Calm Calm - N/A   Overcast
1:15 PM 44.6 °F 40.2 °F 33.8 °F 66% 29.93 in 10.0 mi South 8.1 mph - N/A   Overcast
1:35 PM 44.6 °F 39.7 °F 33.8 °F 66% 29.93 in 10.0 mi SSE 9.2 mph - N/A   Overcast
1:55 PM 44.6 °F 40.2 °F 33.8 °F 66% 29.94 in 10.0 mi SSE 8.1 mph - N/A   Overcast
2:15 PM 46.4 °F 42.4 °F 33.8 °F 62% 29.94 in 10.0 mi South 8.1 mph - N/A   Overcast
2:35 PM 46.4 °F 43.5 °F 33.8 °F 62% 29.94 in 10.0 mi SSE 5.8 mph - N/A   Overcast
2:55 PM 46.4 °F 42.4 °F 33.8 °F 62% 29.94 in 10.0 mi SE 8.1 mph - N/A   Overcast
3:15 PM 46.4 °F 41.9 °F 33.8 °F 62% 29.95 in 10.0 mi SSE 9.2 mph - N/A   Overcast
3:35 PM 46.4 °F 42.9 °F 33.8 °F 62% 29.94 in 10.0 mi ESE 6.9 mph - N/A   Overcast
3:55 PM 48.2 °F - 33.8 °F 58% 29.94 in 10.0 mi SE 9.2 mph - N/A   Overcast
4:15 PM 46.4 °F 42.9 °F 33.8 °F 62% 29.94 in 10.0 mi ESE 6.9 mph - N/A   Overcast
4:35 PM 48.2 °F - 33.8 °F 58% 29.95 in 10.0 mi East 4.6 mph - N/A   Overcast
4:55 PM 48.2 °F - 33.8 °F 58% 29.96 in 10.0 mi ESE 6.9 mph - N/A   Overcast
5:15 PM 46.4 °F 43.5 °F 33.8 °F 62% 29.96 in 10.0 mi ESE 5.8 mph - N/A   Overcast
5:35 PM 46.4 °F 43.5 °F 33.8 °F 62% 29.96 in 10.0 mi ESE 5.8 mph - N/A   Overcast
5:55 PM 46.4 °F 45.2 °F 32.0 °F 57% 29.96 in 10.0 mi SE 3.5 mph - N/A   Overcast
6:15 PM 48.2 °F - 33.8 °F 58% 29.96 in 10.0 mi East 3.5 mph - N/A   Overcast
6:35 PM 46.4 °F 44.3 °F 33.8 °F 62% 29.96 in 10.0 mi ESE 4.6 mph - N/A   Overcast
6:55 PM 46.4 °F 45.2 °F 35.6 °F 66% 29.97 in 10.0 mi ESE 3.5 mph - N/A   Overcast
7:15 PM 46.4 °F - 32.0 °F 57% 29.96 in 10.0 mi Calm Calm - N/A   Partly Cloudy
7:35 PM 44.6 °F - 33.8 °F 66% 29.97 in 10.0 mi Calm Calm - N/A   Clear
7:55 PM 42.8 °F - 33.8 °F 70% 29.97 in 10.0 mi Calm Calm - N/A   Clear
8:15 PM 42.8 °F 41.1 °F 33.8 °F 70% 29.99 in 10.0 mi ESE 3.5 mph - N/A   Clear
8:35 PM 42.8 °F - 33.8 °F 70% 29.99 in 10.0 mi Calm Calm - N/A   Clear
8:55 PM 41.0 °F - 33.8 °F 76% 29.99 in 10.0 mi Calm Calm - N/A   Clear
9:15 PM 39.2 °F - 33.8 °F 81% 29.99 in 10.0 mi Calm Calm - N/A   Clear
9:35 PM 37.4 °F - 35.6 °F 93% 29.99 in 10.0 mi Calm Calm - N/A   Clear
9:55 PM 39.2 °F - 35.6 °F 87% 30.00 in 10.0 mi Calm Calm - N/A   Clear
10:15 PM 37.4 °F - 33.8 °F 87% 30.01 in 10.0 mi Calm Calm - N/A   Clear
10:35 PM 35.6 °F - 33.8 °F 93% 30.01 in 10.0 mi Calm Calm - N/A   Clear
10:55 PM 35.6 °F - 33.8 °F 93% 30.00 in 10.0 mi Calm Calm - N/A   Clear
11:15 PM 35.6 °F - 33.8 °F 93% 29.99 in 10.0 mi Calm Calm - N/A   Clear
11:35 PM 33.8 °F - 32.0 °F 93% 29.99 in 10.0 mi Calm Calm - N/A   Clear
11:55 PM 33.8 °F - 32.0 °F 93% 30.00 in 10.0 mi Calm Calm - N/A   Clear